FDX121 EGSS-LFPG

Flight info

Callsign FDX121
Flight time N/A
Altitude 25000
Route DET M604 LYD UM189 WAFFU UM605 BIBAX
Aircraft B77L/H-SDE1E2E3FGHIJ2J3J4J5M1RWXY/LB1D1

Departure

Time 2026-04-30 20:50
Airport London Stansted Airport (EGSS)

Arrival

Time N/A
Airport Charles de Gaulle International Airport (LFPG)
Time Latitude Longitude Altitude Speed Heading
2026-04-30 20:24 51.88397 0.24441 361 ft 0 kts 223°
2026-04-30 20:41 51.88436 0.24498 367 ft 4 kts 222°
2026-04-30 20:41 51.88450 0.24520 367 ft 3 kts 231°
2026-04-30 20:41 51.88458 0.24543 367 ft 2 kts 280°
2026-04-30 20:41 51.88454 0.24563 370 ft 2 kts 303°
2026-04-30 20:42 51.88447 0.24576 370 ft 1 kts 307°
2026-04-30 20:42 51.88441 0.24586 366 ft 0 kts 308°
2026-04-30 20:42 51.88441 0.24585 366 ft 0 kts 308°
2026-04-30 20:45 51.88454 0.24546 369 ft 8 kts 296°
2026-04-30 20:45 51.88473 0.24490 365 ft 8 kts 302°
2026-04-30 20:45 51.88529 0.24377 368 ft 10 kts 291°
2026-04-30 20:46 51.88228 0.23857 365 ft 25 kts 225°
2026-04-30 20:46 51.88100 0.23659 363 ft 25 kts 222°
2026-04-30 20:47 51.87839 0.23273 360 ft 25 kts 224°
2026-04-30 20:47 51.87736 0.23094 362 ft 11 kts 260°
2026-04-30 20:48 51.87755 0.22857 363 ft 16 kts 232°
2026-04-30 20:48 51.87626 0.22656 359 ft 29 kts 221°
2026-04-30 20:48 51.87521 0.22472 360 ft 7 kts 262°
2026-04-30 20:48 51.87544 0.22389 359 ft 11 kts 312°
2026-04-30 20:49 51.87602 0.22290 360 ft 12 kts 320°
2026-04-30 20:49 51.87679 0.22271 358 ft 11 kts 19°
2026-04-30 20:49 51.87747 0.22355 356 ft 22 kts 42°
2026-04-30 20:50 51.88420 0.23362 366 ft 106 kts 43°
2026-04-30 20:50 51.89049 0.24311 370 ft 149 kts 43°
2026-04-30 20:50 51.89887 0.25574 678 ft 173 kts 45°
2026-04-30 20:50 51.90798 0.26960 1220 ft 187 kts 51°
2026-04-30 20:51 51.91569 0.28516 1495 ft 169 kts 70°